Have a Safe July 4th! 

Flight Track Log - Related Links

Times and Time Zones

All times are in EDT time to prevent confusion due to time zone crossing. See the EJM600 flight status page for this flight to view local times or setup timezone preferences in your user account.

Time Position Orientation Groundspeed Altitude Reporting Facility
EDT Latitude Longitude Course Direction KTS MPH feet Rate Location/Type
Fri 09:16:48 PM 43.5708 -116.2489 292° West 164 189 3,900  Level Salt Lake Center
Fri 09:17:15 PM 43.5797 -116.2797 292° West 221 254 5,300 4,909 Climbing Salt Lake Center
Fri 09:18:16 PM 43.6108 -116.3786 294° West 268 308 11,100 4,927 Climbing Salt Lake Center
Fri 09:19:18 PM 43.6575 -116.4811 302° West 323 372 15,400 4,146 Climbing Salt Lake Center
Fri 09:20:19 PM 43.7350 -116.5747 319° Northwest 368 423 19,600 3,756 Climbing Salt Lake Center
Fri 09:21:21 PM 43.8189 -116.6692 321° Northwest 386 444 23,100 3,220 Climbing Salt Lake Center
Fri 09:22:22 PM 43.9053 -116.7694 320° Northwest 400 460 26,200 2,976 Climbing Salt Lake Center
Fri 09:23:24 PM 43.9964 -116.8750 320° Northwest 422 486 29,200 3,463 Climbing Salt Lake Center
Fri 09:24:25 PM 44.1019 -116.9994 320° Northwest 414 476 33,300 3,463 Climbing Salt Lake Center
Fri 09:25:27 PM 44.1875 -117.1000 320° Northwest 403 464 36,300 2,439 Climbing Salt Lake Center
Fri 09:26:28 PM 44.2733 -117.1986 321° Northwest 402 463 38,300 1,707 Climbing Salt Lake Center
Fri 09:27:30 PM 44.3578 -117.2975 320° Northwest 398 458 39,800 1,610 Climbing Salt Lake Center
Fri 09:28:31 PM 44.4417 -117.3972 320° Northwest 396 456 41,600 1,366 Climbing Salt Lake Center
Fri 09:29:33 PM 44.5231 -117.4975 319° Northwest 391 450 42,600 683 Climbing Salt Lake Center
Fri 09:30:34 PM 44.6072 -117.5964 320° Northwest 391 450 43,000 214 Climbing Salt Lake Center
Fri 09:31:25 PM 44.6781 -117.6800 320° Northwest 405 466 43,000  Level Seattle Center
Fri 09:32:26 PM 44.7697 -117.7894 320° Northwest 426 490 43,000  Level Seattle Center
Fri 09:33:26 PM 44.8611 -117.8992 320° Northwest 430 495 43,000  Level Seattle Center
Fri 09:34:27 PM 44.9692 -118.0314 319° Northwest 430 495 43,000  Level Seattle Center
Fri 09:35:28 PM 45.0592 -118.1414 319° Northwest 428 493 43,000  Level Seattle Center
Fri 09:36:29 PM 45.1358 -118.2347 319° Northwest 425 489 43,000  Level Seattle Center
Fri 09:37:30 PM 45.2250 -118.3453 319° Northwest 424 488 43,000  Level Seattle Center
Fri 09:38:30 PM 45.3133 -118.4558 319° Northwest 426 490 43,000  Level Seattle Center
Fri 09:39:31 PM 45.4017 -118.5661 319° Northwest 426 490 43,000  Level Seattle Center
Fri 09:40:32 PM 45.5069 -118.6964 319° Northwest 423 487 43,000  Level Seattle Center
Fri 09:41:33 PM 45.5942 -118.8075 318° Northwest 423 487 43,000  Level Seattle Center
Fri 09:42:34 PM 45.6811 -118.9189 318° Northwest 421 484 43,000  Level Seattle Center
Fri 09:43:34 PM 45.7589 -119.0394 313° West 421 484 43,000  Level Seattle Center
Fri 09:44:35 PM 45.8342 -119.1689 310° West 420 483 43,000  Level Seattle Center
Fri 09:45:36 PM 45.9081 -119.2950 310° West 420 483 43,000  Level Seattle Center
Fri 09:46:37 PM 45.9844 -119.4250 310° West 422 486 43,000  Level Seattle Center
Fri 09:47:38 PM 46.0597 -119.5561 310° West 429 494 43,000  Level Seattle Center
Fri 09:48:38 PM 46.1353 -119.6847 310° West 425 489 43,000 -149 Level Seattle Center
Fri 09:49:39 PM 46.2094 -119.8128 310° West 424 488 42,700 -1,180 Descending Seattle Center
Fri 09:50:40 PM 46.2844 -119.9431 310° West 423 487 40,600 -2,016 Descending Seattle Center
Fri 09:51:41 PM 46.3594 -120.0756 309° West 425 489 38,600 -2,213 Descending Seattle Center
Fri 09:52:42 PM 46.4475 -120.2317 309° West 423 487 36,100 -2,164 Descending Seattle Center
Fri 09:53:43 PM 46.5233 -120.3642 310° West 424 488 34,200 -1,820 Descending Seattle Center
Fri 09:54:44 PM 46.5947 -120.4958 308° West 423 487 32,400 -1,820 Descending Seattle Center
Fri 09:55:45 PM 46.6586 -120.6322 304° West 412 474 30,500 -1,835 Descending Seattle Center
Fri 09:56:45 PM 46.7264 -120.7731 305° West 422 486 28,700 -1,835 Descending Seattle Center
Fri 09:57:46 PM 46.7936 -120.9186 304° West 428 493 26,800 -1,869 Descending Seattle Center
Fri 09:58:47 PM 46.8611 -121.0639 304° West 432 497 24,900 -1,869 Descending Seattle Center
Fri 09:59:48 PM 46.9256 -121.2017 304° West 419 482 23,000 -1,805 Descending Seattle Center
Fri 10:00:50 PM 46.9908 -121.3364 305° West 412 474 21,200 -1,759 Descending Seattle Center
Fri 10:01:44 PM 47.0486 -121.4631 304° West 334 384 19,600 -1,670 Descending Seattle Center
Fri 10:02:27 PM 47.0856 -121.5433 304° West 334 384 18,500 -1,433 Descending Seattle Center
Fri 10:02:51 PM 47.1022 -121.5775 306° West 343 395 18,000 -1,444 Descending Seattle Center
Fri 10:03:21 PM 47.1331 -121.6475 303° West 334 384 17,200 -1,574 Descending Seattle Center
Fri 10:03:52 PM 47.1600 -121.7053 304° West 329 379 16,400 -1,433 Descending Seattle Center
Fri 10:04:28 PM 47.1886 -121.7667 304° West 326 375 15,600 -1,377 Descending Seattle Center
Fri 10:04:53 PM 47.2114 -121.8139 305° West 323 372 15,000 -1,522 Descending Seattle Center
Fri 10:05:35 PM 47.2442 -121.8861 304° West 311 358 13,900 -1,574 Descending Seattle Center
Fri 10:05:54 PM 47.2586 -121.9183 303° West 311 358 13,400 -1,667 Descending Seattle Center
Fri 10:06:29 PM 47.2869 -121.9831 303° West 301 346 12,400 -1,574 Descending Seattle Center
Fri 10:06:55 PM 47.3047 -122.0203 305° West 303 349 11,800 -1,574 Descending Seattle Center
Fri 10:07:30 PM 47.3333 -122.0850 303° West 298 343 10,800 -1,475 Descending Seattle Center
Fri 10:07:56 PM 47.3497 -122.1194 305° West 284 327 10,300 -787 Descending Seattle Center
Fri 10:08:31 PM 47.3753 -122.1797 302° West 278 320 10,000 -295 Descending Seattle Center
Fri 10:08:57 PM 47.3911 -122.2169 302° West 283 326 10,000 -590 Level Seattle Center
Fri 10:09:32 PM 47.4158 -122.2783 301° West 277 319 9,400 -1,100 Descending Seattle Center
Fri 10:09:57 PM 47.4289 -122.3047 306° West 277 319 8,900 -1,667 Descending Seattle Center
Fri 10:10:26 PM 47.4489 -122.3553 300° West 259 298 7,900 -2,164 Descending Seattle Center
Fri 10:10:58 PM 47.4714 -122.4011 306° West 258 297 6,700 -2,328 Descending Seattle Center
Fri 10:11:33 PM 47.5114 -122.4356 330° Northwest 269 310 5,300 -2,066 Descending Seattle Center
Fri 10:11:59 PM 47.5375 -122.4492 341° North 270 311 4,600 -1,967 Descending Seattle Center
Fri 10:12:34 PM 47.5819 -122.4692 343° North 269 310 3,300 -1,967 Descending Seattle Center
Fri 10:13:00 PM 47.6131 -122.4817 345° North 264 304 2,600 -1,100 Descending Seattle Center
Fri 10:13:34 PM 47.6508 -122.4869 355° North 251 289 2,200 -492 Descending Seattle Center
Fri 10:14:01 PM 47.6675 -122.4514 55° Northeast 242 278 2,100 -295 Descending Seattle Center
Fri 10:14:35 PM 47.6500 -122.4217 131° Southeast 193 222 1,900 -393 Descending Seattle Center
Fri 10:15:02 PM 47.6297 -122.4056 152° Southeast 183 211 1,700 -90 Descending Seattle Center
Fri 10:15:42 PM 47.6139 -122.3758 128° Southeast 144 166 1,800 -200 Climbing Seattle Center
Fri 10:16:02 PM 47.5997 -122.3622 147° Southeast 149 171 1,500 -885 Descending Seattle Center
Fri 10:16:43 PM 47.5769 -122.3436 151° Southeast 134 154 900 -787 Descending Seattle Center
Fri 10:17:03 PM 47.5667 -122.3344 149° Southeast 141 162 700 -590 Descending Seattle Center
Fri 10:17:44 PM 47.5489 -122.3200 151° Southeast 131 151 300 -585 Descending Seattle Center
Fri 10:20:00 PM 47.5300 -122.3020 326° Northwest  Level Estimated

Login

Don't have an account? Register now (free) for customized features, flight alerts, and more!